Springfield, OH

7:46 AM EDT on June 25, 2017 (GMT -0400)
Springfield-Beckley Municipal

Weather History for KSGH - December, 2012

Change the Weather History Date:

Monday, December 3, 2012

  Actual Average (KFFO) Record (KFFO)
Temperature  
Mean Temperature 59 °F -  
Max Temperature 64 °F 44 °F 67 °F (2012)
Min Temperature 54 °F 29 °F 14 °F (2002)
Degree Days  
Heating Degree Days 6    
Growing Degree Days 9 (Base 50)    
Moisture  
Dew Point 55 °F    
Average Humidity 90    
Maximum Humidity 100    
Minimum Humidity 73    
Precipitation  
Precipitation 0.03 in - - ()
Sea Level Pressure  
Sea Level Pressure 30.13 in    
Wind  
Wind Speed 7 mph (SSW)    
Max Wind Speed 13 mph    
Max Gust Speed -    
Visibility 4 miles    
Events Fog , Rain    
Averages and records for this station are not official NWS values.
T = Trace of Precipitation, MM = Missing Value Source: NWS Daily Summary

Daily Weather History Graph

Daily Weather History Graph

Search for Another Location

Airport or City:

Trip Planner

Search our weather history database for the weather conditions in past years. The results will help you decide how hot, cold, wet, or windy it might be!

Date:

Astronomy

Dec. 03, 2012 Rise Set
Actual Time 7:39 AM EST 5:10 PM EST
Civil Twilight 7:09 AM EST 5:40 PM EST
Nautical Twilight 6:36 AM EST 6:14 PM EST
Astronomical Twilight 6:03 AM EST 6:46 PM EST
Moon 9:56 PM EST (12/3) 11:02 AM EST (12/3)
Length of Visible Light 10h 30m
Length of Day
9h 30m
Waning Gibbous, 78% of the Moon is Illuminated
Dec 3
Waning Gibbous
Dec 6
Last Quarter
Dec 13
New
Dec 20
First Quarter
Dec 28
Full

Hourly Weather History & Observations

Time (EST) Temp. Dew Point Humidity Pressure Visibility Wind Dir Wind Speed Gust Speed Precip Events Conditions
12:30 AM 55.4 °F 55.4 °F 100% 30.15 in 0.2 mi SW 3.5 mph - N/A Fog Fog
12:56 AM 54.9 °F 54.9 °F 100% 30.15 in 0.2 mi SSW 6.9 mph - N/A Fog Fog
1:56 AM 55.9 °F 55.9 °F 100% 30.16 in 0.2 mi SSW 5.8 mph - N/A Fog Fog
2:38 AM 55.4 °F 55.4 °F 100% 30.15 in 0.2 mi South 5.8 mph - N/A Fog Fog
2:56 AM 55.9 °F 55.9 °F 100% 30.15 in 0.2 mi SSW 4.6 mph - 0.00 in Fog , Rain Light Rain
3:09 AM 55.4 °F 55.4 °F 100% 30.15 in 0.2 mi SSW 4.6 mph - 0.02 in Fog , Rain Light Rain
3:17 AM 55.4 °F 55.4 °F 100% 30.15 in 0.8 mi SSW 4.6 mph - 0.02 in Rain Light Rain
3:34 AM 55.4 °F 55.4 °F 100% 30.15 in 1.0 mi SSW 5.8 mph - 0.02 in   Overcast
3:42 AM 55.4 °F 55.4 °F 100% 30.15 in 0.8 mi SSW 6.9 mph - 0.02 in Rain Light Rain
3:56 AM 55.9 °F 55.9 °F 100% 30.15 in 0.8 mi SSW 6.9 mph - 0.02 in   Overcast
4:12 AM 55.4 °F 55.4 °F 100% 30.15 in 1.2 mi SSW 5.8 mph - N/A   Overcast
4:25 AM 55.4 °F 55.4 °F 100% 30.15 in 1.5 mi SSW 6.9 mph - N/A   Overcast
4:56 AM 55.9 °F 55.9 °F 100% 30.15 in 2.0 mi SSW 6.9 mph - N/A   Overcast
5:30 AM 55.4 °F 55.4 °F 100% 30.15 in 2.5 mi SSW 4.6 mph - 0.00 in   Overcast
5:44 AM 55.4 °F 55.4 °F 100% 30.15 in 3.0 mi SSW 5.8 mph - 0.00 in   Overcast
5:56 AM 55.9 °F 55.9 °F 100% 30.16 in 4.0 mi SSW 5.8 mph - 0.00 in   Overcast
6:56 AM 55.9 °F 55.9 °F 100% 30.16 in 4.0 mi South 8.1 mph - N/A   Overcast
7:56 AM 55.9 °F 55.9 °F 100% 30.17 in 5.0 mi South 6.9 mph - N/A   Overcast
8:12 AM 55.4 °F 55.4 °F 100% 30.17 in 5.0 mi South 9.2 mph - N/A   Overcast
8:56 AM 55.9 °F 54.9 °F 96% 30.17 in 5.0 mi South 8.1 mph - N/A   Overcast
9:56 AM 59.0 °F 54.9 °F 86% 30.17 in 6.0 mi SSW 10.4 mph - N/A   Overcast
10:56 AM 59.0 °F 54.9 °F 86% 30.16 in 5.0 mi SSW 11.5 mph - N/A   Overcast
11:43 AM 60.8 °F 55.4 °F 82% 30.15 in 5.0 mi SSW 11.5 mph - N/A   Haze
11:56 AM 61.0 °F 55.9 °F 83% 30.14 in 5.0 mi SSW 11.5 mph - N/A   Haze
12:12 PM 60.8 °F 55.4 °F 82% 30.13 in 5.0 mi SSW 11.5 mph - N/A   Haze
12:33 PM 60.8 °F 55.4 °F 82% 30.13 in 4.0 mi SSW 10.4 mph - 0.01 in Rain Light Rain
12:56 PM 61.0 °F 55.9 °F 83% 30.12 in 5.0 mi SSW 11.5 mph - 0.01 in   Haze
1:15 PM 60.8 °F 55.4 °F 82% 30.12 in 5.0 mi SW 12.7 mph - N/A   Haze
1:56 PM 63.0 °F 55.9 °F 78% 30.09 in 6.0 mi SSW 11.5 mph - N/A   Haze
2:56 PM 64.9 °F 56.8 °F 75% 30.08 in 6.0 mi SSW 6.9 mph - N/A   Haze
3:09 PM 64.4 °F 55.4 °F 73% 30.09 in 6.0 mi SSW 10.4 mph - N/A   Haze
3:56 PM 64.9 °F 55.9 °F 73% 30.08 in 6.0 mi South 6.9 mph - N/A   Haze
4:56 PM 63.0 °F 54.9 °F 75% 30.09 in 6.0 mi South 8.1 mph - N/A   Haze
5:56 PM 61.9 °F 54.0 °F 75% 30.10 in 8.0 mi South 6.9 mph - N/A   Clear
6:56 PM 59.9 °F 52.9 °F 78% 30.11 in 8.0 mi South 6.9 mph - N/A   Clear
7:56 PM 57.9 °F 52.9 °F 83% 30.10 in 7.0 mi South 9.2 mph - N/A   Clear
8:56 PM 57.9 °F 52.0 °F 81% 30.09 in 7.0 mi South 8.1 mph - N/A   Clear
9:56 PM 57.9 °F 50.9 °F 77% 30.09 in 8.0 mi South 10.4 mph - N/A   Clear
10:56 PM 57.9 °F 50.0 °F 75% 30.09 in 8.0 mi South 9.2 mph - N/A   Clear
11:56 PM 56.8 °F 48.9 °F 75% 30.10 in 8.0 mi South 6.9 mph - N/A   Clear